World > North America > United States > New York

Oswego, New York Regional Weather

Lat: 43.46N, Lon: 76.5W
Wx Zone: NYZ006Web Search
Oswego Weather Warning NWS WEATHER ALERT FOR THE OSWEGO, NY AREA - Issued: 522 AM EST Sat Feb 27 2021 Oswego Weather Warning  

Helpful Tip: Type the letters wx in the search engine next time you need to find us.

Feedback
Oswego Weather Map
UTC Time: 2/27/2021, 15:54
Your Time:

Oswego, NY Regional Weather

Expires:202102271600;;202965
ASUS41 KALY 271510
RWRALY

NEW YORK STATE HOURLY WEATHER ROUNDUP
NATIONAL WEATHER SERVICE ALBANY NY
1000 AM EST SAT FEB 27 2021

NOTE: "FAIR" INDICATES FEW OR NO CLOUDS BELOW 12,000 FEET WITH NO
SIGNIFICANT WEATHER AND/OR NO OBSTRUCTIONS TO VISIBILITY.


NYZ005>009-017-018-044>046-055-056-271600-
CENTRAL

  
CITY           SKY/WX    TMP DP  RH WIND       PRES   REMARKS
FULTON           N/A     42  32  67 S14G29    29.91F                  
SYRACUSE       PTSUNNY   43  32  65 S17G23    29.94F                  
ROME           CLOUDY    36  29  75 E6        30.03F WCI  31          
ELMIRA         CLOUDY    41  32  70 SW10      29.97F                  
BINGHAMTON     CLOUDY    33  31  92 S14G20    29.96F WCI  23          
MONTICELLO     MIX PCPN  32  31  96 E6        30.09F FOG     WCI  26  
$$


SKY/WX - Weather  TMP - Temperature  DP - Dew Point  RH - Relative Humidity
WIND - Wind Direction/Speed PRES - Barometric Pressure VSB - Visibility
WCI - Wind Chill Index E13G22 Wind - East Wind 13 mph/Gusts of 22 mph